Content
SEND FEEDBACK

Daily
Averages
Monthly
Summary
United States of America

LAKE GEORGE, NEW YORK


Home > North America > United States > New York
Elevation: 321 feet     Latitude: 43 21N     Longitude: 073 37W

WEATHER
 
SELECT A DAY
Number of Records: 212,989;   Date Range: 1/1/95 - 7/27/14
 
SHARE

PRINT THIS DATA

[ ← Previous Day ]
WEATHER ALMANAC - AUGUST 21, 2013
[ Next Day → ]
[ °C ]   °F
Weather ElementAverageHighLow
Temperature62.5 °F84.9 °F (2:53 pm)53.6 °F (6:33 am)
Dewpoint58.9 °F66.9 °F (11:53 am)53.6 °F (6:33 am)
Humidity90.2 %100 % (1:07 am)48 % (2:53 pm)
Barometer30.12 in30.17 in (7:36 am)30.02 in (6:53 pm)
Wind Speed1.6 mph11.5 mph (2:53 pm)
Wind Gust16.1 mph (2:53 pm)
Weather ElementAverage
Visibility3 mi
Wind DirectionNE (40.6 °)

Weather ElementTotal
Precipitation---
Cooling Degree Days4.3 (Base 65)
Growing Degree Days19.3 (Base 50)
Averaged from 63 records on August 21, 2013
WEATHER CONDITIONS BREAKOUT
WIND DIRECTION BREAKOUT
WEATHER BY HOUR - AUGUST 21, 2013
[ °C ]   °F
Local TimeTemperatureDewpointHumidityBarometerVisibilityWind DirectionWind SpeedGust SpeedPrecipitationEventsConditions
12:53 AM62.1 °F61.0 °F96 %30.12 in6.0 miCalmClear
1:07 AM60.8 °F60.8 °F100 %30.13 in1.5 miCalmClear
1:12 AM60.8 °F60.8 °F100 %30.13 in0.5 miCalmFogFog
1:21 AM60.8 °F59.0 °F94 %30.13 in1.2 miCalmPartly Cloudy
1:23 AM62.6 °F59.0 °F88 %30.13 in3.0 miCalmClear
1:34 AM60.8 °F59.0 °F94 %30.13 in1.8 miCalmClear
1:45 AM60.8 °F59.0 °F94 %30.13 in4.0 miCalmClear
1:53 AM60.1 °F57.9 °F93 %30.12 in4.0 miCalmClear
2:19 AM59.0 °F57.2 °F94 %30.13 in1.0 miCalmMist
2:26 AM59.0 °F59.0 °F100 %30.13 in0.5 miCalmFogFog
2:40 AM59.0 °F59.0 °F100 %30.13 in0.2 miCalmFogFog
2:50 AM57.2 °F57.2 °F100 %30.13 in1.0 miCalmMist
2:53 AM57.9 °F57.0 °F97 %30.13 in2.0 miCalmPartly Cloudy
3:09 AM57.2 °F57.2 °F100 %30.13 in0.8 miCalmClear
3:20 AM57.2 °F57.2 °F100 %30.13 in1.0 miCalmMist
3:26 AM57.2 °F57.2 °F100 %30.13 in0.2 miCalmFogFog
3:37 AM59.0 °F57.2 °F94 %30.13 in1.0 miCalmMist
3:39 AM59.0 °F57.2 °F94 %30.13 in2.5 miCalmScattered Clouds
3:46 AM57.2 °F57.2 °F100 %30.13 in5.0 miCalmPartly Cloudy
3:53 AM57.9 °F57.0 °F97 %30.13 in0.8 miCalmMist
4:00 AM57.2 °F55.4 °F94 %30.14 in0.2 miCalmFogFog
4:16 AM57.2 °F55.4 °F94 %30.14 in1.2 miCalmPartly Cloudy
4:30 AM57.2 °F57.2 °F100 %30.14 in1.0 miCalmMist
4:37 AM55.4 °F55.4 °F100 %30.14 in0.2 miCalmFogFog
4:53 AM57.0 °F57.0 °F100 %30.14 in0.5 miCalmFogFog
5:01 AM57.2 °F57.2 °F100 %30.14 in0.2 miCalmFogFog
5:14 AM57.2 °F57.2 °F100 %30.14 in1.0 miCalmMist
5:30 AM55.4 °F55.4 °F100 %30.15 in0.5 miCalmFogFog
5:40 AM55.4 °F55.4 °F100 %30.15 in0.2 miCalmFogFog
5:53 AM55.9 °F55.0 °F97 %30.15 in0.5 miCalmFogFog
5:56 AM55.4 °F55.4 °F100 %30.15 in1.5 miCalmPartly Cloudy
5:58 AM55.4 °F55.4 °F100 %30.15 in3.0 miCalmPartly Cloudy
6:08 AM55.4 °F55.4 °F100 %30.16 in1.5 miCalmPartly Cloudy
6:12 AM55.4 °F55.4 °F100 %30.15 in0.2 miCalmFogFog
6:30 AM55.4 °F55.4 °F100 %30.16 in0.5 miCalmFogFog
6:33 AM53.6 °F53.6 °F100 %30.16 in2.5 miCalmMostly Cloudy
6:44 AM55.4 °F55.4 °F100 %30.16 in1.0 miCalmMist
6:48 AM55.4 °F55.4 °F100 %30.16 in0.8 miCalmMist
6:53 AM57.0 °F55.9 °F96 %30.16 in0.5 miCalmFogFog
7:05 AM57.2 °F57.2 °F100 %30.16 in1.5 miCalmScattered Clouds
7:09 AM55.4 °F55.4 °F100 %30.16 in1.0 miCalmMist
7:11 AM55.4 °F55.4 °F100 %30.16 in0.8 miCalmMist
7:26 AM59.0 °F59.0 °F100 %30.16 in1.5 miCalmClear
7:36 AM60.8 °F60.8 °F100 %30.17 in2.5 miCalmClear
7:53 AM63.0 °F61.0 °F93 %30.17 in2.5 miCalmClear
8:00 AM64.4 °F60.8 °F88 %30.17 in3.0 miCalmClear
8:53 AM66.9 °F62.1 °F84 %30.17 in4.0 miCalmHaze
9:53 AM71.1 °F63.0 °F75 %30.17 in6.0 miSSE (160°)3.5 mphHaze
10:53 AM75.0 °F66.0 °F73 %30.16 in6.0 miSSE (160°)5.8 mphHaze
11:53 AM78.1 °F66.9 °F68 %30.14 in7.0 miSSE (150°)8.1 mphClear
12:53 PM81.0 °F66.9 °F62 %30.12 in8.0 miSE (140°)9.2 mphClear
1:53 PM82.9 °F66.0 °F56 %30.10 in10.0 miSSE (160°)9.2 mphPartly Cloudy
2:53 PM84.9 °F63.0 °F48 %30.08 in10.0 miSSW (210°)11.5 mph16.1 mphScattered Clouds
3:53 PM84.9 °F63.0 °F48 %30.05 in10.0 miSW (220°)9.2 mphClear
4:53 PM84.0 °F63.0 °F49 %30.04 in10.0 miSW (220°)11.5 mphPartly Cloudy
5:53 PM82.0 °F61.0 °F49 %30.04 in10.0 miSSW (210°)9.2 mphClear
6:53 PM79.0 °F62.1 °F56 %30.02 in10.0 miSSW (210°)8.1 mphClear
7:53 PM75.9 °F62.1 °F62 %30.03 in5.0 miSW (230°)5.8 mphHaze
8:53 PM72.0 °F62.1 °F71 %30.03 in10.0 miWSW (250°)3.5 mphClear
9:53 PM66.0 °F64.0 °F93 %30.03 in8.0 miWSW (240°)3.5 mphClear
10:53 PM64.0 °F62.1 °F93 %30.02 in5.0 miCalmClear
11:51 PM62.6 °F62.6 °F100 %30.03 in2.5 miCalmClear
11:53 PM63.0 °F62.1 °F97 %30.02 in2.5 miCalmClear
Hourly data recorded from KGFL, located miles away from Lake George, New York







STORIES FROM OUR PARTNERS